Location: *
(49.3500°N, 12.6000°E)
Time: 10:31:24
(UTC+00:00)

Starlink (trailer) - Pass Details

Date: 18 October 2019
Orbit: 549 x 550 km, 53.0° (Epoch: 20 November)

Event Time Altitude Azimuth Distance (km) Brightness Sun altitude
Rises 17:11:11 0° 256° (WSW) 2,716 9.2 -10.0°
Reaches altitude 10° 17:13:26 10° 259° (W) 1,823 7.8 -10.4°
Maximum altitude 17:17:33 67° 343° (NNW) 599 3.8 -11.0°
Enters shadow 17:20:56 15° 65° (ENE) 1,532 5.3 -11.6°
